Regional Weather Roundup
Issued by NWS

Home | Current Version | Previous Version | Graphics & Text | Print | Product List | Glossary On
Versions: 1 2 3 4 5 6 7 8 9 10 11 12 13 14 15 16 17 18 19 20 21 22 23 24 25 26 27 28 29 30 31 32 33 34 35 36 37 38 39 40 41 42 43 44 45 46 47 48 49 50
000
ASUS43 KMPX 220001
RWRMN
WEATHER ROUNDUP FOR MINNESOTA
NATIONAL WEATHER SERVICE TWIN CITIES/CHANHASSEN MN
700 PM CDT SUN SEP 21 2014


NOTE: "FAIR" INDICATES FEW OR NO CLOUDS BELOW 12,000 FEET WITH NO
SIGNIFICANT WEATHER AND/OR OBSTRUCTIONS TO VISIBILITY. N/A MEANS
CURRENT SKY AND/OR WEATHER CONDITIONS ARE NOT AVAILABLE.

MNZ060>063-068>070-220100-
   Twin Cities Metro

CITY           SKY/WX    TMP DP  RH WIND       PRES   REMARKS
TWIN CITIES    PTCLDY    64  45  49 NW8       30.16R
6HR MIN TEMP:  61; 6HR MAX TEMP:  67;

ST PAUL        CLEAR     63  46  54 N6        30.17R
CRYSTAL        CLEAR     65  45  48 N6        30.16R
BLAINE         CLEAR     63  46  55 N8        30.17R
LAKEVILLE      CLEAR     59  48  67 W5        30.17R
EDEN PRAIRIE   CLEAR     63  47  55 NW6       30.16R
6HR MIN TEMP:  62; 6HR MAX TEMP:  68;

SOUTH ST PAUL  CLEAR     64  45  50 N6        30.16R
LAKE ELMO      FAIR      61  46  59 CALM      30.17S
$$
MNZ001>005-007-008-013>017-022>024-027-028-220100-
   Northwest Minnesota

CITY           SKY/WX    TMP DP  RH WIND       PRES   REMARKS
BEMIDJI        CLOUDY    56  48  73 W7        30.21R
HALLOCK        CLEAR     63  50  63 CALM      30.17S
ROSEAU         CLOUDY    59  52  77 CALM      30.18S
WARROAD        PTCLDY    55  52  88 CALM      30.18S
THIEF RVR FALL CLOUDY    59  52  77 SW5       30.20S
CROOKSTON      CLEAR     61  50  67 CALM      30.20F
FOSSTON        CLOUDY    57  48  72 CALM      30.22S
DETROIT LAKES  CLEAR     55  46  71 NW5       30.23S
MOORHEAD       CLEAR     61  54  77 E5        30.22S
PARK RAPIDS    CLEAR     52  48  86 NW8       30.21R
MAHNOMEN       FAIR      58  47  68 CALM      30.22R
$$
MNZ006-009>011-018-025>026-220100-
   North Central Minnesota

CITY           SKY/WX    TMP DP  RH WIND       PRES   REMARKS
BAUDETTE       CLEAR     57  49  74 VRB3      30.17S
FLAG ISLAND    CLOUDY    57  48  72 W6        30.15S
INTL FALLS     CLEAR     54  48  80 W5        30.16R
6HR MIN TEMP:  54; 6HR MAX TEMP:  64;

WASKISH        MOCLDY    57  52  82 CALM      30.18S
BIG FORK       MOCLDY    57  48  72 CALM      30.18R
LONGVILLE      CLEAR     55  50  82 CALM      30.19R
GRAND RAPIDS   PTCLDY    57  45  62 W5        30.18R
CRANE LAKE     MOCLDY    52  48  87 CALM      30.17S
ORR            CLOUDY    57  48  72 CALM      30.14R
COOK           CLOUDY    57  46  67 CALM      30.16S
WALKER         FAIR      56  48  73 W7        30.20R
$$
MNZ012-019>021-037-220100-
   Northeast Minnesota

CITY           SKY/WX    TMP DP  RH WIND       PRES   REMARKS
DULUTH         PTCLDY    59  42  53 NW6       30.14R
6HR MIN TEMP:  59; 6HR MAX TEMP:  64;

ELY            CLEAR     54  43  66 NW3       30.15S
HIBBING        PTCLDY    57  45  64 NW5       30.16R
EVELETH        CLEAR     57  41  54 NW5       30.17R
DULUTH HARBOR  CLEAR     64  43  45 NW6       30.15R
TWO HARBORS    CLEAR     55  43  62 CALM      30.12S
SILVER BAY     CLEAR     52  46  82 CALM      30.12R
GRAND MARAIS     N/A     50  47  89 NW3       30.11R
G MARAIS ARPRT CLEAR     50  37  62 W3        30.13R
$$
MNZ029>031-032-039>041-046>048-054>057-064-220100-
   West Central Minnesota

CITY           SKY/WX    TMP DP  RH WIND       PRES   REMARKS
FERGUS FALLS   CLEAR     61  46  59 E3        30.22S
WHEATON        CLEAR     61  48  63 NE3       30.23F
MORRIS         CLEAR     61  50  67 N6        30.22S
ALEXANDRIA     CLEAR     58  48  69 N7        30.24R
ELBOW LAKE     FAIR      58  49  71 CALM      30.22S
WADENA         MOCLDY    54  48  82 NW3       30.22S
GLENWOOD       CLEAR     57  48  72 N5        30.23S
APPLETON       CLEAR     64  48  55 N5        30.22S
BENSON         CLEAR     59  48  67 N5        30.23R
ORTONVILLE     CLEAR     64  48  55 CALM      30.22S
MADISON        CLEAR     64  50  59 N5        30.22S
WILLMAR        FAIR      61  48  63 N6        30.23S
$$
MNZ033>034-036-042>043-049>051-058-059-220100-
   Central Minnesota

CITY           SKY/WX    TMP DP  RH WIND       PRES   REMARKS
ST CLOUD       PTCLDY    64  50  60 NW9       30.18R
6HR MIN TEMP:  64; 6HR MAX TEMP:  69;

SAUK CENTRE    FAIR      57  49  73 NW9       30.22S
PAYNESVILLE    CLEAR     56  48  75 W6        30.22S
AITKIN         CLEAR     61  50  67 CALM      30.18R
PINE RIVER     CLEAR     57  50  77 CALM      30.22S
BRAINERD       CLEAR     58  49  72 NW3       30.19S
STAPLES        CLEAR     55  48  76 W9        30.21S
LONG PRAIRIE   FAIR      55  48  76 W6        30.22S
LITTLE FALLS   CLEAR     59  48  67 W6          N/A
LITCHFIELD     CLEAR     61  52  72 NW8       30.21R
BUFFALO        CLEAR     63  47  57 W7        30.19R
MAPLE LAKE     CLEAR     62  52  70 NW7       30.20R
$$
MNZ037-044-045-052-053-220100-
   East Central Minnesota

CITY           SKY/WX    TMP DP  RH WIND       PRES   REMARKS
PRINCETON      CLEAR     64  46  52 NW5       30.18R
MORA           CLEAR     57  45  62 NW5       30.19S
CAMBRIDGE      CLEAR     63  48  59 CALM      30.16R
RUSH CITY      CLEAR     59  48  66 CALM      30.18R
MOOSE LAKE     CLEAR     59  46  63 W3        30.15S
HINCKLEY       FAIR      59  48  67 NW3       30.17R
CLOQUET        CLEAR     57  45  62 W5        30.16R
MCGREGOR       PTCLDY    59  46  63 NW5       30.18R
$$
MNZ071>073-080-081-089-090-097-098-220100-
   Southwest Minnesota

CITY           SKY/WX    TMP DP  RH WIND       PRES   REMARKS
MONTEVIDEO     CLEAR     63  50  63 NE7       30.23S
GRANITE FALLS  CLEAR     61  49  64 N6        30.23S
CANBY          CLEAR     63  50  62 N3        30.24S
MARSHALL       CLEAR     63  46  55 N7        30.22S
REDWOOD FALLS  CLEAR     62  50  64 N7        30.21S
OLIVIA         PTCLDY    61  50  67 N5        30.21S
PIPESTONE      CLEAR     64  45  48 NE6       30.24R
WINDOM         CLEAR     61  48  63 N8        30.22S
WORTHINGTON    CLEAR     63  45  51 N9        30.23S
JACKSON        CLEAR     61  46  59 N5        30.23R
TRACY          CLEAR     62  48  60 CALM      30.23S
SLAYTON        CLEAR     61  46  57 CALM      30.24S
$$
MNZ065>067-074>077-082>085-091>093-220100-
   South Central Minnesota

CITY           SKY/WX    TMP DP  RH WIND       PRES   REMARKS
MANKATO        CLEAR     63  46  55 NW8       30.19S
NEW ULM        CLEAR     61  50  67 N7        30.20S
ST JAMES       CLEAR     63  50  63 NW6       30.22R
FAIRMONT       PTCLDY    63  46  55 N7        30.21R
GLENCOE        CLEAR     62  49  63 NW7       30.19R
FARIBAULT      CLEAR     63  46  55 NW3       30.18S
OWATONNA       CLEAR     61  48  63 W5        30.18R
WASECA         CLEAR     59  45  58 NW6       30.20S
ALBERT LEA     CLEAR     61  48  63 NW7       30.19R
$$
MNZ078>079-086>088-094>096-220100-
   Southeast Minnesota

CITY           SKY/WX    TMP DP  RH WIND       PRES   REMARKS
ROCHESTER      CLEAR     58  47  66 N7        30.18R
6HR MIN TEMP:  58; 6HR MAX TEMP:  64;

RED WING       CLEAR     61  46  59 NW3       30.15S
STANTON        CLEAR     61  48  62 NW5       30.15S
DODGE CENTER   CLEAR     59  48  67 N6        30.17S
WINONA         CLEAR     59  46  63 NW6       30.15R
AUSTIN         CLEAR     59  48  67 N8        30.17S
PRESTON        CLEAR     57  50  77 N6        30.17R
$$
ABBREVIATIONS USED IN REMARKS
   TC - TEMPERATURES IN CELSIUS
  WCI - WIND CHILL INDEX
   HX - HEAT INDEX
  VSB - VISIBILITY
$$



USA.gov is the U.S. government's official web portal to all federal, state and local government web resources and services.